Weather reports worldwide

Advertisment
D15-FA-1, Netherlands (6201): temperature & dewpoint: 10.12.2019 14:00:00 - 16.12.2019 14:00:00 (CET)D15-FA-1, Netherlands (6201): wind speed & gusts: 10.12.2019 14:00:00 - 16.12.2019 14:00:00 (CET)D15-FA-1, Netherlands (6201): wind direction: 10.12.2019 14:00:00 - 16.12.2019 14:00:00 (CET)D15-FA-1, Netherlands (6201): reduced air pressure: 10.12.2019 14:00:00 - 16.12.2019 14:00:00 (CET)D15-FA-1, Netherlands (6201): visibility: 10.12.2019 14:00:00 - 16.12.2019 14:00:00 (CET)
Date & Time tt [°C] td [°C] ff [km/h] ff [kn] fx [km/h] fx [kn] dd ppp [hPa] vv [km]
16.12.2019 14:00:00 7,9 3,9 39 21 40 21 WSW 998,8 10
16.12.2019 13:00:00 8,1 3,9 42 23 43 23 WSW 998,7 10
16.12.2019 12:00:00 8,1 4,7 42 23 43 23 SW 998,6 10
16.12.2019 11:00:00 8,0 5,0 37 20 40 21 SW 998,5 10
16.12.2019 10:00:00 7,9 4,6 39 21 43 23 SW 997,8 10
16.12.2019 09:00:00 7,8 4,6 44 24 50 27 SW 997,1 10
16.12.2019 08:00:00 7,8 4,6 37 20 58 31 SW 996,2 10
16.12.2019 07:00:00 7,8 4,8 42 23 54 29 SW 996,2 10
16.12.2019 06:00:00 8,0 4,6 42 23 61 33 SW 996,0 10
16.12.2019 05:00:00 8,3 4,7 55 30 68 37 SW 995,8 10
16.12.2019 04:00:00 8,4 5,3 61 33 68 37 SW 996,2 10
16.12.2019 03:00:00 8,3 5,1 65 35 76 41 SW 996,2 10
16.12.2019 02:00:00 8,2 5,6 54 29 68 37 SW 996,4 5
16.12.2019 01:00:00 8,6 5,2 55 30 61 33 SW 996,3 10
16.12.2019 00:00:00 8,6 4,7 55 30 65 35 SW 996,5 10
15.12.2019 23:00:00 8,3 4,8 52 28 54 29 SW 996,9 10
15.12.2019 22:00:00 8,2 4,3 41 22 50 27 SW 997,0 10
15.12.2019 21:00:00 8,1 4,1 41 22 40 21 SW 996,4 10
15.12.2019 20:00:00 7,9 3,7 34 18 43 23 WSW 996,0 10
15.12.2019 19:00:00 7,3 2,4 42 23 47 25 WSW 995,2 10
15.12.2019 18:00:00 7,0 1,9 39 21 40 21 WSW 994,7 10
15.12.2019 17:00:00 7,0 2,1 39 21 47 25 WSW 994,1 10
15.12.2019 16:00:00 6,9 1,6 42 23 50 27 W 993,3 10
15.12.2019 15:00:00 6,8 1,6 46 25 54 29 WSW 991,9 10
15.12.2019 14:00:00 6,8 1,1 59 32 61 33 W 990,9 10
15.12.2019 13:00:00 6,8 2,0 55 30 54 29 W 989,6 10
15.12.2019 12:00:00 6,8 1,9 65 35 68 37 W 988,6 10
15.12.2019 11:00:00 6,5 2,1 70 38 83 45 W 986,9 10
15.12.2019 10:00:00 5,6 2,2 87 47 97 53 - 984,3 10
15.12.2019 09:00:00 5,2 2,7 85 46 94 51 W 981,5 8
15.12.2019 08:00:00 7,0 1,8 65 35 72 39 WSW 980,1 10
15.12.2019 07:00:00 7,4 2,6 61 33 76 41 WSW 979,9 9
15.12.2019 06:00:00 8,1 3,9 42 23 54 29 WSW 979,2 10
15.12.2019 05:00:00 7,4 4,9 48 26 47 25 SW 979,6 10
15.12.2019 04:00:00 8,2 5,7 48 26 68 37 SW 980,1 10
15.12.2019 03:00:00 7,3 6,8 54 29 65 35 SW 981,1 7
15.12.2019 02:00:00 5,9 4,1 39 21 47 25 S 983,7 10
15.12.2019 01:00:00 5,6 1,3 55 30 61 33 SSW 985,8 10
15.12.2019 00:00:00 7,8 2,6 52 28 68 37 SW 986,8 10
14.12.2019 23:00:00 7,6 2,5 44 24 50 27 WSW 987,3 10
14.12.2019 22:00:00 7,3 1,6 50 27 54 29 WSW 987,8 10
14.12.2019 21:00:00 7,3 1,8 54 29 58 31 WSW 987,5 10
14.12.2019 20:00:00 6,9 2,0 63 34 68 37 W 986,8 10
14.12.2019 19:00:00 6,9 1,2 65 35 72 39 W 985,8 10
14.12.2019 18:00:00 6,7 1,3 67 36 76 41 W 984,9 10
14.12.2019 17:00:00 6,8 1,9 67 36 68 37 W 983,8 10
14.12.2019 16:00:00 5,7 1,6 63 34 86 47 W 983,1 10
14.12.2019 15:00:00 7,1 1,9 59 32 65 35 W 982,5 10
14.12.2019 14:00:00 7,3 1,6 57 31 72 39 W 981,3 10
14.12.2019 13:00:00 7,1 2,3 61 33 68 37 - 980,6 10
14.12.2019 12:00:00 7,1 2,2 61 33 76 41 W 980,1 10
14.12.2019 11:00:00 6,9 2,4 61 33 76 41 W 979,3 10
14.12.2019 10:00:00 6,9 2,3 65 35 72 39 - 978,3 10
14.12.2019 09:00:00 7,1 2,5 68 37 79 43 W 977,1 10
14.12.2019 08:00:00 6,9 2,1 76 41 83 45 W 976,3 10
14.12.2019 07:00:00 7,2 2,7 54 29 68 37 - 975,5 10
14.12.2019 06:00:00 7,4 2,6 54 29 68 37 W 975,0 10
14.12.2019 05:00:00 7,5 3,1 50 27 65 35 - 974,8 10
14.12.2019 04:00:00 6,2 3,9 44 24 54 29 W 974,9 9
14.12.2019 03:00:00 6,7 4,3 48 26 58 31 W 974,7 9
14.12.2019 02:00:00 7,1 5,2 37 20 40 21 WSW 974,6 10
14.12.2019 01:00:00 7,6 4,8 31 17 36 19 WSW 975,1 10
14.12.2019 00:00:00 7,8 5,4 37 20 40 21 WSW 975,2 10
13.12.2019 23:00:00 7,2 3,8 31 17 36 19 WSW 975,5 10
13.12.2019 22:00:00 7,9 5,0 35 19 36 19 WSW 975,6 10
13.12.2019 21:00:00 8,0 4,9 35 19 40 21 WSW 975,8 10
13.12.2019 20:00:00 7,9 4,6 25 14 29 16 WSW 976,3 28
13.12.2019 19:00:00 8,2 4,6 31 17 32 18 WSW 976,6 10
13.12.2019 18:00:00 8,1 4,5 29 16 32 18 WSW 976,7 10
13.12.2019 17:00:00 8,0 4,8 28 15 29 16 WSW 976,5 10
13.12.2019 16:00:00 7,9 4,4 29 16 29 16 WSW 976,5 10
13.12.2019 15:00:00 7,6 4,0 26 14 29 16 WSW 975,7 10
13.12.2019 14:00:00 7,9 3,5 18 10 25 14 - 975,2 10
13.12.2019 13:00:00 7,9 3,7 26 14 29 16 WSW 974,8 10
13.12.2019 12:00:00 8,0 4,4 24 13 25 14 WSW 974,4 10
13.12.2019 11:00:00 8,2 4,9 18 10 22 12 - 973,7 10
13.12.2019 10:00:00 8,3 5,2 18 10 29 16 - 972,8 10
13.12.2019 09:00:00 8,6 4,4 28 15 29 16 SW 971,8 10
13.12.2019 08:00:00 8,5 5,3 29 16 32 18 SW 970,9 10
13.12.2019 07:00:00 8,4 6,1 26 14 29 16 WSW 970,0 10
13.12.2019 06:00:00 8,3 6,3 26 14 29 16 WSW 969,2 10
13.12.2019 05:00:00 8,0 6,9 29 16 36 19 WSW 968,6 10
13.12.2019 04:00:00 8,0 6,7 39 21 61 33 SSE 968,5 10
13.12.2019 03:00:00 6,8 5,6 65 35 79 43 SE 969,0 9
13.12.2019 02:00:00 6,1 4,5 65 35 94 51 SSE 970,3 10
13.12.2019 01:00:00 7,0 5,1 74 40 90 49 SSE 971,5 10
13.12.2019 00:00:00 6,5 5,4 72 39 83 45 SSE 973,1 10
12.12.2019 23:00:00 7,1 5,5 74 40 72 39 SSE 974,7 10
12.12.2019 22:00:00 6,4 5,8 63 34 79 43 S 976,2 10
12.12.2019 21:00:00 6,6 6,1 70 38 76 41 SSE 978,0 10
12.12.2019 20:00:00 6,7 6,3 70 38 90 49 SSE 979,6 10
12.12.2019 19:00:00 5,7 5,3 72 39 83 45 SSE 981,4 10
12.12.2019 18:00:00 7,2 4,9 63 34 76 41 S 983,2 10
12.12.2019 17:00:00 7,9 4,1 57 31 61 33 SSE 985,0 10
12.12.2019 16:00:00 7,5 3,9 48 26 58 31 SSE 986,9 10
12.12.2019 15:00:00 7,5 2,6 44 24 47 25 S 988,2 10
12.12.2019 14:00:00 6,8 1,9 44 24 54 29 S 989,9 10
12.12.2019 13:00:00 6,5 1,6 44 24 50 27 S 991,4 10
12.12.2019 12:00:00 6,3 0,7 46 25 50 27 SSW 992,7 10
12.12.2019 11:00:00 6,3 1,2 44 24 50 27 SW 994,0 10
12.12.2019 10:00:00 6,3 1,4 39 21 43 23 SW 994,9 10
12.12.2019 09:00:00 6,5 1,8 34 18 32 18 SW 995,2 10
12.12.2019 08:00:00 6,6 1,4 29 16 29 16 WSW 995,4 10
12.12.2019 07:00:00 6,6 1,4 29 16 29 16 WSW 996,0 10
12.12.2019 06:00:00 6,7 2,1 28 15 29 16 WSW 996,4 10
12.12.2019 05:00:00 6,7 1,7 24 13 32 18 WSW 996,6 10
12.12.2019 04:00:00 6,7 1,4 31 17 36 19 W 997,0 10
12.12.2019 03:00:00 6,8 1,9 29 16 40 21 W 997,1 10
12.12.2019 02:00:00 6,3 3,3 21 11 25 14 WSW 997,3 10
12.12.2019 01:00:00 6,1 3,0 22 12 29 16 W 997,6 10
12.12.2019 00:00:00 5,6 3,1 28 15 32 18 W 997,8 10
11.12.2019 23:00:00 5,6 3,6 37 20 47 25 W 998,3 10
11.12.2019 22:00:00 7,8 3,9 41 22 47 25 SW 997,8 10
11.12.2019 21:00:00 7,7 3,6 34 18 43 23 SW 998,2 10
11.12.2019 20:00:00 7,7 3,7 34 18 40 21 SSW 998,5 10
11.12.2019 19:00:00 7,7 3,6 34 18 32 18 SW 999,0 10
11.12.2019 18:00:00 7,8 4,4 35 19 43 23 SW 999,0 10
11.12.2019 17:00:00 7,8 4,7 42 23 47 25 SW 999,2 10
11.12.2019 16:00:00 7,8 4,2 42 23 50 27 SW 999,4 10
11.12.2019 15:00:00 7,9 3,8 44 24 50 27 SW 1000,0 10
11.12.2019 14:00:00 7,5 4,5 44 24 50 27 SW 1000,6 10
11.12.2019 13:00:00 7,3 4,0 50 27 50 27 SW 1001,2 10
11.12.2019 12:00:00 7,6 4,1 46 25 47 25 SW 1001,7 10
11.12.2019 11:00:00 7,8 3,9 28 15 43 23 SW 1002,5 10
11.12.2019 10:00:00 7,8 3,6 34 18 32 18 WSW 1002,7 10
11.12.2019 09:00:00 7,8 3,9 34 18 36 19 WSW 1002,7 10
11.12.2019 08:00:00 7,8 3,6 41 22 43 23 W 1002,5 10
11.12.2019 07:00:00 7,9 3,5 48 26 47 25 W 1002,4 10
11.12.2019 06:00:00 8,0 3,8 46 25 47 25 W 1002,5 10
11.12.2019 05:00:00 8,0 3,3 44 24 50 27 WSW 1002,2 10
11.12.2019 04:00:00 8,2 3,8 46 25 54 29 W 1002,3 10
11.12.2019 03:00:00 8,4 3,9 52 28 58 31 W 1001,4 10
11.12.2019 02:00:00 8,7 3,9 55 30 65 35 W 1000,8 10
11.12.2019 01:00:00 8,8 4,2 48 26 58 31 W 999,9 10
11.12.2019 00:00:00 8,7 6,1 46 25 54 29 WSW 999,2 10
10.12.2019 23:00:00 9,3 5,9 46 25 97 53 WSW 997,8 10
10.12.2019 22:00:00 9,4 8,3 78 42 101 54 S 995,2 7
10.12.2019 21:00:00 9,8 8,0 76 41 83 45 S 995,9 9
10.12.2019 20:00:00 9,7 7,7 81 44 86 47 S 996,6 9
10.12.2019 19:00:00 9,6 7,4 81 44 90 49 S 997,0 8
10.12.2019 18:00:00 9,6 7,2 78 42 83 45 S 999,0 10
10.12.2019 17:00:00 9,4 7,0 76 41 79 43 S 1000,6 10
10.12.2019 16:00:00 9,0 7,0 74 40 79 43 S 1002,4 8
10.12.2019 15:00:00 7,9 6,3 76 41 79 43 S 1004,5 9
10.12.2019 14:00:00 9,0 5,5 74 40 76 41 S 1006,9 10

tt = temperature
td = dewpoint
ff = wind speed
fx = gusts
dd = wind direction
ppp = reduced air pressure
vv = visibility

Next stations